Weather History for Pompano Beach, FL

Change the Weather History Date:

Thursday, March 31, 2011

  Actual Average Record
Temperature  
Mean Temperature 83 °F -  
Max Temperature 93 °F 83 °F 93 °F (2011)
Min Temperature 73 °F 65 °F 44 °F (1950)
Cooling Degree Days 18    
Growing Degree Days 33 (Base 50)    
Moisture  
Dew Point 69 °F    
Average Humidity 67    
Maximum Humidity 94    
Minimum Humidity 37    
Precipitation  
Precipitation 0.00 in - - ()
Sea Level Pressure  
Sea Level Pressure 29.82 in    
Wind  
Wind Speed 6 mph (SSW)    
Max Wind Speed 23 mph    
Max Gust Speed 31 mph    
Visibility 10 miles    
Events      
Averages and records for this station are not official NWS values.
T = Trace of Precipitation, MM = Missing Value Source: NWS Daily Summary

Daily Weather History Graph

Daily Weather History Graph

Search for Another Location

Airport:

Trip Planner

Search our weather history database for the weather conditions in past years. The results will help you decide how hot, cold, wet, or windy it might be!

Date:

Astronomy

Mar. 31, 2011 Rise Set
Actual Time 7:12 AM EDT 7:36 PM EDT
Civil Twilight 6:49 AM EDT 8:00 PM EDT
Nautical Twilight 6:22 AM EDT 8:27 PM EDT
Astronomical Twilight 5:55 AM EDT 8:54 PM EDT
Moon 5:18 AM EDT (3/31) 5:21 PM EDT (3/31)
Length of Visible Light 13h 10m
Length of Day
12h 23m
Waning Crescent, 8% of the Moon is Illuminated
Mar 31
Waning Crescent
Apr 3
New
Apr 11
First Quarter
Apr 17
Full
Apr 24
Last Quarter

Hourly Weather History & Observations

Time (EDT) Temp. Heat Index Dew Point Humidity Pressure Visibility Wind Dir Wind Speed Gust Speed Precip Events Conditions
12:15 AM 77.0 °F - 69.8 °F 78% 29.93 in 10.0 mi Calm Calm - N/A   Mostly Cloudy
12:53 AM 77.0 °F - 70.0 °F 79% 29.92 in 10.0 mi Calm Calm - N/A   Mostly Cloudy
1:53 AM 75.9 °F - 70.0 °F 82% 29.92 in 10.0 mi Calm Calm - N/A   Clear
2:53 AM 75.0 °F - 70.0 °F 84% 29.90 in 9.0 mi Calm Calm - N/A   Clear
3:53 AM 73.9 °F - 70.0 °F 87% 29.87 in 8.0 mi Calm Calm - N/A   Partly Cloudy
4:53 AM 73.0 °F - 70.0 °F 90% 29.84 in 7.0 mi Calm Calm - N/A   Clear
5:53 AM 73.9 °F - 71.1 °F 91% 29.82 in 7.0 mi SE 6.9 mph - N/A   Clear
6:53 AM 75.9 °F - 72.0 °F 87% 29.81 in 9.0 mi SSE 8.1 mph - N/A   Clear
7:53 AM 75.2 °F - 73.4 °F 94% 29.83 in 9.0 mi SSE 6.9 mph - N/A   Clear
8:53 AM 79.0 °F - 73.0 °F 82% 29.86 in 10.0 mi South 9.2 mph - N/A   Clear
9:53 AM 82.0 °F 87.4 °F 73.0 °F 74% 29.86 in 10.0 mi South 8.1 mph - N/A   Clear
10:53 AM 84.9 °F 89.4 °F 70.0 °F 61% 29.85 in 10.0 mi SSE 13.8 mph - N/A   Partly Cloudy
11:53 AM 86.0 °F 88.8 °F 66.9 °F 53% 29.83 in 10.0 mi SW 17.3 mph 29.9 mph N/A   Scattered Clouds
12:53 PM 89.1 °F 92.9 °F 68.0 °F 50% 29.82 in 10.0 mi SSW 13.8 mph 23.0 mph N/A   Clear
1:53 PM 91.0 °F 93.0 °F 64.9 °F 42% 29.77 in 10.0 mi SW 17.3 mph 27.6 mph N/A   Scattered Clouds
2:53 PM 93.0 °F 94.2 °F 63.0 °F 37% 29.74 in 10.0 mi South 23.0 mph 31.1 mph N/A   Scattered Clouds
3:53 PM 91.9 °F 94.1 °F 64.9 °F 41% 29.71 in 10.0 mi SW 19.6 mph 26.5 mph N/A   Scattered Clouds
4:53 PM 90.0 °F 90.6 °F 63.0 °F 40% 29.71 in 10.0 mi SW 16.1 mph 26.5 mph N/A   Scattered Clouds
5:53 PM 88.0 °F 89.3 °F 64.0 °F 45% 29.73 in 10.0 mi SW 16.1 mph 23.0 mph N/A   Mostly Cloudy
6:53 PM 86.0 °F 88.8 °F 66.9 °F 53% 29.74 in 10.0 mi West 18.4 mph - N/A   Mostly Cloudy
7:53 PM 82.9 °F 85.8 °F 68.0 °F 60% 29.76 in 10.0 mi WSW 15.0 mph - N/A   Partly Cloudy
8:53 PM 81.0 °F 84.1 °F 69.1 °F 67% 29.79 in 10.0 mi West 6.9 mph - N/A   Clear
9:53 PM 81.0 °F 84.1 °F 69.1 °F 67% 29.81 in 10.0 mi West 11.5 mph - N/A   Scattered Clouds
10:53 PM 80.1 °F 83.2 °F 70.0 °F 71% 29.82 in 10.0 mi WSW 9.2 mph - N/A   Scattered Clouds
11:53 PM 80.1 °F 83.2 °F 70.0 °F 71% 29.83 in 10.0 mi SW 6.9 mph - N/A   Mostly Cloudy